EA8CHC Sevilla ES current weather conditions

sailwx.info

Wind from 191 at 4 knots gusting 8

Air temperature 21.1° C
Dewpoint 14.3° C

Last reported at 2014-Nov-24 13:47 UTC.
Time now 2014-Nov-24 14:07 UTC

Location: N 37°26' W 006°03'.
View on Google Maps.

See reports from other nearby stations

  
Tides and Currents Weather Stations Pressure Air Temp Water Temp Dewpoint Dewpoint Depression Visibility Wind Speed Wind Dir Waves Ship Positions
date/time (UTC)wind fromknots sea level pressurealtimeterstation pressurevisibilityair tempwater tempwave heightnotes
2014-Nov-24 13:47 191 4 gusting 8 21.1
2014-Nov-24 13:32 201 5 gusting 7 20.6
2014-Nov-24 13:17 194 4 gusting 10 21.1
2014-Nov-24 13:02 232 5 gusting 8 21.1
2014-Nov-24 12:57 198 5 gusting 8 21.1
2014-Nov-24 12:52 178 4 gusting 8 20.6
2014-Nov-24 12:47 196 4 gusting 8 20.6
2014-Nov-24 12:32 184 2 gusting 5 20.6
2014-Nov-24 12:17 278 2 gusting 5 20.0
2014-Nov-24 12:02 236 1 gusting 4 20.0
2014-Nov-24 11:57 180 1 gusting 5 20.0
2014-Nov-24 11:52 179 2 gusting 5 20.0
2014-Nov-24 11:47 225 1 gusting 5 20.0
2014-Nov-24 11:32 103 20.0
2014-Nov-24 11:17 061 0 gusting 4 19.4
2014-Nov-24 11:02 056 1 gusting 4 19.4
2014-Nov-24 10:57 010 0 gusting 4 19.4
2014-Nov-24 10:52 043 0 gusting 4 18.9
2014-Nov-24 10:47 020 1 gusting 4 18.9
2014-Nov-24 10:32 071 18.9
2014-Nov-24 10:17 071 18.3
2014-Nov-24 10:02 084 0 gusting 2 17.8
2014-Nov-24 09:57 078 17.8
2014-Nov-24 09:52 069 0 gusting 3 17.2
2014-Nov-24 09:47 067 0 gusting 6 17.2
2014-Nov-24 09:32 108 1 gusting 4 16.7
2014-Nov-24 09:17 094 0 gusting 2 16.1
2014-Nov-24 09:02 355 15.6
2014-Nov-24 08:57 355 15.6
2014-Nov-24 08:52 355 15.6
2014-Nov-24 08:47 355 15.6
2014-Nov-24 08:32 321 15.6
2014-Nov-24 08:17 321 15.6
2014-Nov-24 08:02 321 15.6
2014-Nov-24 07:57 321 15.6
2014-Nov-24 07:52 321 0 gusting 2 15.6
2014-Nov-24 07:47 321 0 gusting 2 15.6
2014-Nov-24 07:32 074 15.6
2014-Nov-24 07:17 074 0 gusting 2 15.6
2014-Nov-24 07:02 074 0 gusting 3 15.6
2014-Nov-24 06:57 074 1 gusting 5 15.6
2014-Nov-24 06:52 074 2 gusting 5 15.6
2014-Nov-24 06:47 074 1 gusting 4 15.6
2014-Nov-24 06:32 068 2 gusting 6 15.6
2014-Nov-24 06:17 070 3 gusting 5 15.6
2014-Nov-24 06:02 094 2 gusting 4 15.6
2014-Nov-24 05:57 092 2 gusting 4 15.6
2014-Nov-24 05:52 078 1 gusting 4 15.6
2014-Nov-24 05:47 071 0 gusting 3 15.6
2014-Nov-24 05:32 104 1 gusting 6 15.6
2014-Nov-24 05:17 104 2 gusting 6 15.6
2014-Nov-24 05:02 082 15.6
2014-Nov-24 04:57 082 1 gusting 6 15.6
2014-Nov-24 04:52 081 3 gusting 6 15.6
2014-Nov-24 04:47 091 3 gusting 6 15.6
2014-Nov-24 04:32 159 1 gusting 6 15.6
2014-Nov-24 04:17 110 0 gusting 4 15.6
2014-Nov-24 04:02 101 1 gusting 6 15.6
2014-Nov-24 03:57 077 2 gusting 6 15.6
2014-Nov-24 03:52 074 3 gusting 9 15.6
2014-Nov-24 03:47 082 3 gusting 9 15.6
2014-Nov-24 03:32 082 3 gusting 6 15.6
2014-Nov-24 03:17 089 4 gusting 8 16.1
2014-Nov-24 03:02 059 3 gusting 8 15.6
2014-Nov-24 02:47 080 1 gusting 7 15.6
2014-Nov-24 02:32 092 4 gusting 13 15.6
2014-Nov-24 02:17 069 7 gusting 11 15.6
2014-Nov-24 02:02 076 5 gusting 11 15.6
2014-Nov-24 01:58 052 5 gusting 11 15.6
2014-Nov-24 01:52 053 5 gusting 10 15.6
2014-Nov-24 01:47 086 5 gusting 10 15.6
2014-Nov-24 01:32 104 3 gusting 6 15.6
2014-Nov-24 01:17 101 2 gusting 6 15.6
2014-Nov-24 01:02 092 1 gusting 4 15.6
2014-Nov-24 00:47 096 1 gusting 3 15.6
2014-Nov-24 00:32 070 15.6
2014-Nov-24 00:17 070 0 gusting 3 15.6
2014-Nov-24 00:02 061 0 gusting 2 15.6
2014-Nov-23 23:47 032 1 gusting 5 15.6
2014-Nov-23 23:32 034 0 gusting 4 15.6
2014-Nov-23 23:17 049 2 gusting 5 15.6
2014-Nov-23 23:02 109 1 gusting 5 16.1
2014-Nov-23 22:57 094 2 gusting 6 16.1
2014-Nov-23 22:52 074 3 gusting 8 16.1
2014-Nov-23 22:47 092 3 gusting 8 16.1
2014-Nov-23 22:32 088 2 gusting 6 16.1
2014-Nov-23 22:17 084 3 gusting 6 16.1
2014-Nov-23 22:02 067 4 gusting 8 16.1
2014-Nov-23 21:57 074 4 gusting 8 16.7
2014-Nov-23 21:52 042 4 gusting 8 16.7
2014-Nov-23 21:47 077 4 gusting 8 16.7
2014-Nov-23 21:32 082 5 gusting 10 16.7
2014-Nov-23 21:17 088 5 gusting 8 16.7
2014-Nov-23 21:02 099 2 gusting 5 16.7
2014-Nov-23 20:57 095 2 gusting 5 16.7
2014-Nov-23 20:52 101 2 gusting 5 16.7
2014-Nov-23 20:47 084 1 gusting 4 16.7
2014-Nov-23 20:32 109 16.7
2014-Nov-23 20:17 109 16.7
2014-Nov-23 20:02 109 16.7
2014-Nov-23 19:57 109 16.7
2014-Nov-23 19:52 109 16.7
2014-Nov-23 19:47 109 0 gusting 1 16.7
2014-Nov-23 19:32 109 0 gusting 1 16.7
2014-Nov-23 19:17 109 0 gusting 3 17.2
2014-Nov-23 19:02 142 0 gusting 4 17.2
2014-Nov-23 18:57 142 0 gusting 5 17.2
2014-Nov-23 18:52 142 1 gusting 5 17.2
2014-Nov-23 18:47 165 2 gusting 5 17.2
2014-Nov-23 18:32 175 3 gusting 6 17.2
2014-Nov-23 18:17 159 3 gusting 5 17.2
2014-Nov-23 18:02 161 2 gusting 5 17.2
2014-Nov-23 17:57 165 3 gusting 5 17.8
2014-Nov-23 17:52 157 3 gusting 5 17.8
2014-Nov-23 17:47 136 3 gusting 5 17.8
2014-Nov-23 17:32 138 4 gusting 12 17.8
2014-Nov-23 17:17 158 4 gusting 6 18.3
2014-Nov-23 17:02 167 2 gusting 5 18.9
2014-Nov-23 16:57 164 1 gusting 5 19.4
2014-Nov-23 16:52 159 1 gusting 6 19.4
2014-Nov-23 16:47 142 1 gusting 6 20.0
2014-Nov-23 16:32 200 2 gusting 5 20.6
2014-Nov-23 16:17 161 20.6
2014-Nov-23 16:02 135 0 gusting 4 20.6
2014-Nov-23 15:57 135 0 gusting 6 20.6
2014-Nov-23 15:52 131 1 gusting 6 20.6
2014-Nov-23 15:47 136 3 gusting 7 20.6
2014-Nov-23 15:32 145 2 gusting 6 20.6
2014-Nov-23 15:17 144 1 gusting 5 21.1
2014-Nov-23 15:02 204 1 gusting 4 21.1
2014-Nov-23 14:57 176 1 gusting 4 21.1
2014-Nov-23 14:52 200 1 gusting 5 21.1
2014-Nov-23 14:47 205 1 gusting 5 21.1
2014-Nov-23 14:32 167 2 gusting 6 21.1
2014-Nov-23 14:17 182 3 gusting 6 21.1
2014-Nov-23 14:02 150 1 gusting 6 21.7
2014-Nov-23 13:47 126 2 gusting 4 21.7
2014-Nov-23 13:32 129 1 gusting 5 21.7
2014-Nov-23 13:17 159 21.1
2014-Nov-23 13:02 163 1 gusting 5 20.6
2014-Nov-23 12:47 136 2 gusting 4 20.6
2014-Nov-23 12:32 121 0 gusting 3 20.0
2014-Nov-23 12:17 121 0 gusting 5 20.0
2014-Nov-23 12:02 165 0 gusting 4 20.0
2014-Nov-23 11:57 136 0 gusting 4 20.0
2014-Nov-23 11:52 105 1 gusting 4 20.0
2014-Nov-23 11:47 111 1 gusting 5 19.4
2014-Nov-23 11:32 134 1 gusting 4 19.4
2014-Nov-23 11:17 100 0 gusting 3 18.9
2014-Nov-23 11:02 069 0 gusting 3 18.3
2014-Nov-23 10:57 070 1 gusting 3 18.3
2014-Nov-23 10:52 069 1 gusting 3 18.3
2014-Nov-23 10:47 077 1 gusting 3 18.3
2014-Nov-23 10:32 044 1 gusting 4 18.3
2014-Nov-23 10:17 298 17.2
2014-Nov-23 10:02 297 0 gusting 2 16.7
2014-Nov-23 09:47 298 0 gusting 2 16.1
2014-Nov-23 09:32 272 15.6
2014-Nov-23 09:17 272 0 gusting 2 15.6
2014-Nov-23 09:02 272 15.6
2014-Nov-23 08:57 272 15.0
2014-Nov-23 08:52 272 15.0
2014-Nov-23 08:47 272 15.0
2014-Nov-23 08:32 272 15.0
2014-Nov-23 08:17 272 15.0
2014-Nov-23 08:02 272 15.0
2014-Nov-23 07:57 272 15.0
2014-Nov-23 07:52 272 15.0
2014-Nov-23 07:47 272 15.0
2014-Nov-23 07:32 272 15.6
2014-Nov-23 07:17 272 15.6
2014-Nov-23 07:02 272 1 gusting 3 15.0
2014-Nov-23 06:57 272 2 gusting 3 15.0
2014-Nov-23 06:52 263 2 gusting 3 15.0
2014-Nov-23 06:47 259 0 gusting 3 15.0
2014-Nov-23 06:32 259 2 gusting 3 15.0
2014-Nov-23 06:17 286 1 gusting 2 15.0
2014-Nov-23 06:02 286 15.6
2014-Nov-23 05:47 286 15.6
2014-Nov-23 05:32 286 0 gusting 2 16.7
2014-Nov-23 05:17 286 0 gusting 3 16.7
2014-Nov-23 05:02 283 2 gusting 3 16.7
2014-Nov-23 04:58 277 2 gusting 3 16.7
2014-Nov-23 04:52 277 2 gusting 3 16.7
2014-Nov-23 04:47 277 2 gusting 3 16.7
2014-Nov-23 04:32 277 2 gusting 4 16.7
2014-Nov-23 04:17 280 2 gusting 5 16.1
2014-Nov-23 04:02 269 3 gusting 5 15.6
2014-Nov-23 03:47 273 2 gusting 4 15.6
2014-Nov-23 03:32 270 2 gusting 4 15.6
2014-Nov-23 03:17 240 1 gusting 3 15.6
2014-Nov-23 03:02 090 15.6
2014-Nov-23 02:57 090 15.6
2014-Nov-23 02:52 090 15.6
2014-Nov-23 02:47 090 15.6
2014-Nov-23 02:32 101 16.1
2014-Nov-23 02:17 101 1 gusting 3 16.7
2014-Nov-23 02:02 289 16.7
2014-Nov-23 01:57 299 0 gusting 2 16.7
2014-Nov-23 01:52 303 0 gusting 2 16.7
2014-Nov-23 01:47 302 0 gusting 2 16.7
2014-Nov-23 01:32 165 17.2
2014-Nov-23 01:17 165 0 gusting 3 17.2
2014-Nov-23 01:02 164 0 gusting 5 17.2
2014-Nov-23 00:57 164 1 gusting 5 17.2
2014-Nov-23 00:52 160 1 gusting 5 17.2
2014-Nov-23 00:47 149 0 gusting 4 17.2
2014-Nov-23 00:32 150 1 gusting 5 17.2
2014-Nov-23 00:17 163 2 gusting 4 16.7
2014-Nov-23 00:02 203 1 gusting 3 17.2
2014-Nov-22 23:57 032 0 gusting 2 17.2
2014-Nov-22 23:52 032 17.2
2014-Nov-22 23:47 032 0 gusting 3 17.8
2014-Nov-22 23:32 271 1 gusting 4 18.9
2014-Nov-22 23:17 269 3 gusting 4 18.9
2014-Nov-22 23:02 267 4 gusting 5 18.9
2014-Nov-22 22:58 269 3 gusting 4 18.9
2014-Nov-22 22:52 279 2 gusting 3 18.9
2014-Nov-22 22:47 286 2 gusting 2 18.3
2014-Nov-22 22:32 300 2 gusting 3 18.3
2014-Nov-22 22:17 317 18.3
2014-Nov-22 22:02 317 0 gusting 2 18.9
2014-Nov-22 21:57 317 18.9
2014-Nov-22 21:52 317 18.9
2014-Nov-22 21:47 317 0 gusting 2 18.9
2014-Nov-22 21:32 317 1 gusting 2 18.9
2014-Nov-22 21:17 321 18.9
2014-Nov-22 21:02 292 0 gusting 2 18.9
2014-Nov-22 20:57 292 0 gusting 3 18.9
2014-Nov-22 20:52 289 0 gusting 4 18.9
2014-Nov-22 20:47 288 2 gusting 4 18.9
2014-Nov-22 20:32 324 1 gusting 2 18.9
2014-Nov-22 20:17 308 2 gusting 4 18.3
2014-Nov-22 19:42 286 0 gusting 3 18.3
2014-Nov-22 19:37 286 1 gusting 3 18.3
2014-Nov-22 19:32 284 1 gusting 3 18.3
2014-Nov-22 19:27 284 1 gusting 3 18.3
2014-Nov-22 19:22 284 1 gusting 3 18.9
2014-Nov-22 19:17 284 2 gusting 3 18.9
2014-Nov-22 19:12 280 1 gusting 3 18.9
2014-Nov-22 19:07 281 0 gusting 2 19.4
2014-Nov-22 19:02 061 19.4
2014-Nov-22 18:57 061 19.4
2014-Nov-22 18:52 061 19.4
2014-Nov-22 18:47 061 19.4
2014-Nov-22 18:32 062 0 gusting 4 19.4
2014-Nov-22 18:17 044 1 gusting 4 19.4
2014-Nov-22 18:02 074 0 gusting 5 19.4
2014-Nov-22 17:57 074 1 gusting 5 19.4
2014-Nov-22 17:52 076 2 gusting 5 19.4
2014-Nov-22 17:47 067 2 gusting 5 19.4
2014-Nov-22 17:32 087 2 gusting 5 20.0
2014-Nov-22 17:17 080 0 gusting 6 20.0
2014-Nov-22 17:02 055 4 gusting 8 20.0
2014-Nov-22 16:47 069 3 gusting 6 20.0
2014-Nov-22 16:32 061 3 gusting 6 20.0
2014-Nov-22 16:17 079 4 gusting 6 20.0
2014-Nov-22 16:02 061 3 gusting 6 20.0
2014-Nov-22 15:47 064 2 gusting 6 20.6
2014-Nov-22 15:32 019 4 gusting 7 20.6
2014-Nov-22 15:17 040 5 gusting 9 20.6
2014-Nov-22 15:02 076 6 gusting 9 20.6
2014-Nov-22 14:57 070 5 gusting 9 20.6
2014-Nov-22 14:52 044 5 gusting 9 20.6
2014-Nov-22 14:47 071 5 gusting 8 20.6
2014-Nov-22 14:32 064 4 gusting 8 20.6
2014-Nov-22 14:17 062 5 gusting 9 21.1
2014-Nov-22 14:02 063 4 gusting 8 21.1